Location: Newark
(52.4787°S, 179.0532°W)
Time: 05:08:59
(UTC+00:00)

Transit 2A Rocket - Pass Details

Date: 20 November 2019
Orbit: 594 x 909 km, 66.7° (Epoch: 14 December)

Event Time Altitude Azimuth Distance (km) Brightness Sun altitude
Rises 20:59:01 0° 344° (NNW) 3,321 8.4 44.6°
Reaches altitude 10° 21:01:26 10° 349° (N) 2,440 7.9 45.0°
Maximum altitude 21:06:53 48° 62° (ENE) 1,135 9.4 45.7°
Drops below altitude 10° 21:12:42 10° 134° (SE) 2,606 8.0 46.4°
Sets 21:15:21 0° 139° (SE) 3,568 8.5 46.7°
